Погода в Сегеде

Венгрия     46°15′41″N   20°09′03″E
темп.,
°C
ветер,
м/с
пор.,
м/с
влажн.,
%
обл.,
%
осадки,
мм/ч
давл.,
гПа
погр.,
м
17 апреля, сб
сб1723:00+5юз116390 0.0 102110
02:00+3ю3369100 0.0 102041
05:00+4ююз2368100 0.0 102066
08:00+5ю2367100 0.0 1019234
11:00+9ююв225799 0.0 10191202
14:00+11в2248100 0.0 10171622
17:00+12всв3349100 0.0 10161517
20:00+8всв2265100 0.0 101619
18 апреля, вс
вс1823:00+7зюз3373100 0.0 101776
02:00+7ссз3677100 0.1 1016171
05:00+6св4892100 1.3 1015358
08:00+6св3793100 4.3 1015326
11:00+7всв3491100 2.1 1016291
14:00+8ююв1391100 3.0 1016259
17:00+7юв2493100 1.1 1016326
20:00+6юв1295100 1.3 101785
19 апреля, пн
пн1923:00+6ююз0096100 0.1 101759
02:00+6ююз3596100 0.4 1017292
05:00+6ююз249699 0.1 1016183
08:00+7ю1191100 0.2 1016205
11:00+9ю2375100 0.2 1015779
14:00+10юз226620 0.3 1015928
17:00+11зсз1161100 0.1 1013931
20:00+9ссз2273100 0.3 101326
20 апреля, вт
вт2023:00+8сз2277100 0.0 101337
02:00+8сз2381100 0.0 101365
05:00+7сз2383100 0.0 101272
08:00+8з2381100 0.0 1013138
11:00+12з336187 0.0 10131104
14:00+13зюз4451100 0.1 10121630
17:00+13з3458100 0.2 10121112
20:00+9зсз357787 0.3 101490
21 апреля, ср
ср2123:00+8зсз369295 0.4 1015158
02:00+6з359683 0.9 1015111
05:00+8зюз2591100 0.3 1016213
08:00+8зюз2394100 0.4 1017180
11:00+10зюз4482100 0.1 1018465
14:00+15з455766 0.3 10171485
17:00+15з45539 0.3 10171541
20:00+11зюз33715 0.3 101821